Year,Month,Day,Hour,Minute,Value (Times are PST for barometer in hPa)
2015,08,29,00,00,1004.79
2015,08,29,00,01,1004.68
2015,08,29,00,02,1004.67
2015,08,29,00,03,1004.64
2015,08,29,00,04,1004.64
2015,08,29,00,05,1004.64
2015,08,29,00,06,1004.67
2015,08,29,00,07,1004.64
2015,08,29,00,08,1004.57
2015,08,29,00,09,1004.61
2015,08,29,00,10,1004.54
2015,08,29,00,11,1004.50
2015,08,29,00,12,1004.50
2015,08,29,00,17,1004.29
2015,08,29,00,18,1004.22
2015,08,29,00,19,1004.17
2015,08,29,00,20,1004.10
2015,08,29,00,21,1004.12
2015,08,29,00,22,1004.06
2015,08,29,00,23,1004.09
2015,08,29,00,24,1004.03
2015,08,29,00,25,1004.03
2015,08,29,00,26,1004.03
2015,08,29,00,27,1004.03
2015,08,29,00,28,1004.03
2015,08,29,00,29,1003.99
2015,08,29,00,30,1003.90
2015,08,29,00,31,1003.90
2015,08,29,00,32,1003.93
2015,08,29,00,33,1003.90
2015,08,29,00,34,1003.90
2015,08,29,00,35,1003.90
2015,08,29,00,36,1003.90
2015,08,29,00,37,1003.89
2015,08,29,00,38,1003.79
2015,08,29,00,39,1003.83
2015,08,29,00,40,1003.79
2015,08,29,00,41,1003.83
2015,08,29,00,42,1003.79
2015,08,29,00,43,1003.76
2015,08,29,00,44,1003.73
2015,08,29,00,45,1003.69
2015,08,29,00,46,1003.69
2015,08,29,00,47,1003.66
2015,08,29,00,48,1003.65
2015,08,29,00,49,1003.59
2015,08,29,00,50,1003.61
2015,08,29,00,51,1003.56
2015,08,29,00,52,1003.56
2015,08,29,00,53,1003.56
2015,08,29,00,54,1003.52
2015,08,29,00,55,1003.49
2015,08,29,00,56,1003.52
2015,08,29,00,57,1003.46
2015,08,29,00,58,1003.42
2015,08,29,00,59,1003.39
2015,08,29,01,00,1003.35
2015,08,29,01,01,1003.35
2015,08,29,01,02,1003.32
2015,08,29,01,03,1003.32
2015,08,29,01,04,1003.32
2015,08,29,01,05,1003.32
2015,08,29,01,06,1003.35
2015,08,29,01,07,1003.39
2015,08,29,01,08,1003.45
2015,08,29,01,09,1003.39
2015,08,29,01,10,1003.39
2015,08,29,01,11,1003.34
2015,08,29,01,12,1003.25
2015,08,29,01,13,1003.22
2015,08,29,01,14,1003.17
2015,08,29,01,15,1003.05
2015,08,29,01,16,1003.01
2015,08,29,01,17,1002.97
2015,08,29,01,18,1002.87
2015,08,29,01,19,1002.74
2015,08,29,01,20,1002.70
2015,08,29,01,21,1002.60
2015,08,29,01,22,1002.51
2015,08,29,01,23,1002.46
2015,08,29,01,24,1002.41
2015,08,29,01,25,1002.36
2015,08,29,01,26,1002.30
2015,08,29,01,27,1002.30
2015,08,29,01,28,1002.27
2015,08,29,01,29,1002.24
2015,08,29,01,30,1002.19
2015,08,29,01,31,1002.13
2015,08,29,01,32,1002.09
2015,08,29,01,33,1002.00
2015,08,29,01,34,1001.93
2015,08,29,01,35,1001.86
2015,08,29,01,36,1001.79
2015,08,29,01,37,1001.73
2015,08,29,01,38,1001.69
2015,08,29,01,39,1001.73
2015,08,29,01,40,1001.69
2015,08,29,01,41,1001.66
2015,08,29,01,42,1001.69
2015,08,29,01,43,1001.66
2015,08,29,01,44,1001.66
2015,08,29,01,45,1001.69
2015,08,29,01,46,1001.66
2015,08,29,01,47,1001.66
2015,08,29,01,48,1001.69
2015,08,29,01,49,1001.69
2015,08,29,01,50,1001.73
2015,08,29,01,51,1001.76
2015,08,29,01,52,1001.73
2015,08,29,01,53,1001.69
2015,08,29,01,54,1001.69
2015,08,29,01,55,1001.63
2015,08,29,01,56,1001.56
2015,08,29,01,57,1001.53
2015,08,29,01,58,1001.63
2015,08,29,01,59,1001.66
2015,08,29,02,00,1001.63
2015,08,29,02,01,1001.66
2015,08,29,02,02,1001.63
2015,08,29,02,03,1001.69
2015,08,29,02,04,1001.76
2015,08,29,02,05,1001.84
2015,08,29,02,06,1001.97
2015,08,29,02,07,1002.00
2015,08,29,02,08,1002.00
2015,08,29,02,09,1001.99
2015,08,29,02,10,1001.86
2015,08,29,02,11,1001.92
2015,08,29,02,12,1001.83
2015,08,29,02,13,1001.85
2015,08,29,02,14,1001.73
2015,08,29,02,15,1001.69
2015,08,29,02,16,1001.63
2015,08,29,02,17,1001.59
2015,08,29,02,18,1001.52
2015,08,29,02,19,1001.52
2015,08,29,02,20,1001.56
2015,08,29,02,21,1001.59
2015,08,29,02,22,1001.62
2015,08,29,02,23,1001.52
2015,08,29,02,24,1001.49
2015,08,29,02,25,1001.46
2015,08,29,02,26,1001.39
2015,08,29,02,27,1001.36
2015,08,29,02,28,1001.32
2015,08,29,02,29,1001.25
2015,08,29,02,30,1001.25
2015,08,29,02,31,1001.25
2015,08,29,02,32,1001.22
2015,08,29,02,33,1001.19
2015,08,29,02,34,1001.15
2015,08,29,02,35,1001.12
2015,08,29,02,36,1001.11
2015,08,29,02,37,1000.97
2015,08,29,02,38,1000.85
2015,08,29,02,39,1000.85
2015,08,29,02,40,1000.80
2015,08,29,02,41,1000.71
2015,08,29,02,42,1000.70
2015,08,29,02,43,1000.60
2015,08,29,02,44,1000.51
2015,08,29,02,45,1000.48
2015,08,29,02,46,1000.51
2015,08,29,02,47,1000.53
2015,08,29,02,48,1000.41
2015,08,29,02,49,1000.37
2015,08,29,02,50,1000.41
2015,08,29,02,51,1000.37
2015,08,29,02,52,1000.34
2015,08,29,02,53,1000.27
2015,08,29,02,54,1000.26
2015,08,29,02,55,1000.17
2015,08,29,02,56,1000.17
2015,08,29,02,57,1000.20
2015,08,29,02,58,1000.24
2015,08,29,02,59,1000.20
2015,08,29,03,00,1000.20
2015,08,29,03,01,1000.27
2015,08,29,03,02,1000.27
2015,08,29,03,03,1000.31
2015,08,29,03,04,1000.37
2015,08,29,03,05,1000.37
2015,08,29,03,06,1000.37
2015,08,29,03,07,1000.34
2015,08,29,03,08,1000.41
2015,08,29,03,09,1000.41
2015,08,29,03,10,1000.44
2015,08,29,03,11,1000.44
2015,08,29,03,12,1000.48
2015,08,29,03,13,1000.51
2015,08,29,03,14,1000.54
2015,08,29,03,15,1000.57
2015,08,29,03,16,1000.44
2015,08,29,03,17,1000.44
2015,08,29,03,18,1000.24
2015,08,29,03,19,1000.34
2015,08,29,03,20,1000.31
2015,08,29,03,21,1000.31
2015,08,29,03,22,1000.34
2015,08,29,03,23,1000.34
2015,08,29,03,24,1000.34
2015,08,29,03,25,1000.24
2015,08,29,03,26,1000.24
2015,08,29,03,27,1000.23
2015,08,29,03,28,1000.10
2015,08,29,03,29,1000.17
2015,08,29,03,30,1000.13
2015,08,29,03,31,1000.02
2015,08,29,03,32,999.90
2015,08,29,03,33,999.93
2015,08,29,03,34,999.87
2015,08,29,03,35,999.83
2015,08,29,03,36,999.79
2015,08,29,03,37,999.66
2015,08,29,03,38,999.48
2015,08,29,03,39,999.32
2015,08,29,03,40,999.22
2015,08,29,03,41,999.19
2015,08,29,03,42,999.22
2015,08,29,03,43,999.22
2015,08,29,03,44,999.26
2015,08,29,03,45,999.33
2015,08,29,03,46,999.46
2015,08,29,03,47,999.42
2015,08,29,03,48,999.32
2015,08,29,03,49,999.26
2015,08,29,03,50,999.29
2015,08,29,03,51,999.29
2015,08,29,03,52,999.29
2015,08,29,03,53,999.29
2015,08,29,03,54,999.22
2015,08,29,03,55,999.19
2015,08,29,03,56,999.14
2015,08,29,03,57,999.02
2015,08,29,03,58,999.02
2015,08,29,03,59,999.09
2015,08,29,04,00,999.09
2015,08,29,04,01,999.09
2015,08,29,04,02,999.05
2015,08,29,04,03,998.99
2015,08,29,04,04,998.95
2015,08,29,04,05,998.95
2015,08,29,04,06,998.85
2015,08,29,04,07,998.82
2015,08,29,04,08,998.78
2015,08,29,04,09,998.75
2015,08,29,04,10,998.75
2015,08,29,04,11,998.75
2015,08,29,04,12,998.71
2015,08,29,04,13,998.68
2015,08,29,04,14,998.64
2015,08,29,04,15,998.54
2015,08,29,04,16,998.51
2015,08,29,04,17,998.48
2015,08,29,04,18,998.48
2015,08,29,04,19,998.48
2015,08,29,04,20,998.48
2015,08,29,04,21,998.48
2015,08,29,04,22,998.44
2015,08,29,04,23,998.51
2015,08,29,04,24,998.48
2015,08,29,04,25,998.48
2015,08,29,04,26,998.51
2015,08,29,04,27,998.48
2015,08,29,04,28,998.51
2015,08,29,04,29,998.54
2015,08,29,04,30,998.58
2015,08,29,04,31,998.61
2015,08,29,04,32,998.61
2015,08,29,04,33,998.61
2015,08,29,04,34,998.65
2015,08,29,04,35,998.71
2015,08,29,04,36,998.75
2015,08,29,04,37,998.71
2015,08,29,04,38,998.82
2015,08,29,04,39,998.82
2015,08,29,04,40,998.71
2015,08,29,04,41,998.71
2015,08,29,04,42,998.75
2015,08,29,04,43,998.70
2015,08,29,04,44,998.58
2015,08,29,04,45,998.58
2015,08,29,04,46,998.61
2015,08,29,04,47,998.61
2015,08,29,04,48,998.55
2015,08,29,04,49,998.71
2015,08,29,04,50,998.77
2015,08,29,04,51,998.66
2015,08,29,04,52,998.76
2015,08,29,04,53,998.89
2015,08,29,04,54,999.09
2015,08,29,04,55,999.04
2015,08,29,04,56,998.93
2015,08,29,04,57,999.06
2015,08,29,04,58,999.22
2015,08,29,04,59,999.33
2015,08,29,05,00,999.43
2015,08,29,05,01,999.53
2015,08,29,05,02,999.39
2015,08,29,05,03,999.47
2015,08,29,05,04,999.60
2015,08,29,05,05,999.70
2015,08,29,05,06,999.77
2015,08,29,05,07,999.88
2015,08,29,05,08,999.97
2015,08,29,05,09,1000.00
2015,08,29,05,10,1000.07
2015,08,29,05,11,1000.10
2015,08,29,05,12,1000.17
2015,08,29,05,13,999.99
2015,08,29,05,14,999.83
2015,08,29,05,15,999.80
2015,08,29,05,16,999.84
2015,08,29,05,17,999.97
2015,08,29,05,18,999.92
2015,08,29,05,19,999.72
2015,08,29,05,20,999.59
2015,08,29,05,21,999.59
2015,08,29,05,22,999.56
2015,08,29,05,23,999.48
2015,08,29,05,24,999.36
2015,08,29,05,25,999.18
2015,08,29,05,26,998.95
2015,08,29,05,27,998.88
2015,08,29,05,28,998.82
2015,08,29,05,29,998.78
2015,08,29,05,30,998.68
2015,08,29,05,31,998.65
2015,08,29,05,32,998.61
2015,08,29,05,33,998.65
2015,08,29,05,34,998.58
2015,08,29,05,35,998.54
2015,08,29,05,36,998.47
2015,08,29,05,37,998.31
2015,08,29,05,38,998.24
2015,08,29,05,39,998.17
2015,08,29,05,40,998.10
2015,08,29,05,41,998.00
2015,08,29,05,42,998.00
2015,08,29,05,43,997.94
2015,08,29,05,44,998.00
2015,08,29,05,45,998.04
2015,08,29,05,46,997.97
2015,08,29,05,47,997.80
2015,08,29,05,48,997.73
2015,08,29,05,49,997.77
2015,08,29,05,50,997.69
2015,08,29,05,51,997.46
2015,08,29,05,52,997.43
2015,08,29,05,53,997.36
2015,08,29,05,54,997.28
2015,08,29,05,55,997.16
2015,08,29,05,56,997.13
2015,08,29,05,57,997.27
2015,08,29,05,58,997.39
2015,08,29,05,59,997.46
2015,08,29,06,00,997.50
2015,08,29,06,01,997.56
2015,08,29,06,02,997.56
2015,08,29,06,03,997.56
2015,08,29,06,04,997.55
2015,08,29,06,05,997.39
2015,08,29,06,06,997.29
2015,08,29,06,07,997.09
2015,08,29,06,08,996.92
2015,08,29,06,09,996.84
2015,08,29,06,10,996.72
2015,08,29,06,11,996.75
2015,08,29,06,12,996.78
2015,08,29,06,13,996.72
2015,08,29,06,14,996.75
2015,08,29,06,15,996.78
2015,08,29,06,16,996.78
2015,08,29,06,17,996.72
2015,08,29,06,18,996.82
2015,08,29,06,19,996.77
2015,08,29,06,20,996.61
2015,08,29,06,21,996.51
2015,08,29,06,22,996.55
2015,08,29,06,23,996.55
2015,08,29,06,24,996.50
2015,08,29,06,25,996.31
2015,08,29,06,26,996.21
2015,08,29,06,27,996.11
2015,08,29,06,28,996.17
2015,08,29,06,29,996.28
2015,08,29,06,30,996.31
2015,08,29,06,31,996.27
2015,08,29,06,32,996.14
2015,08,29,06,33,996.17
2015,08,29,06,34,996.17
2015,08,29,06,35,996.24
2015,08,29,06,36,996.34
2015,08,29,06,37,996.31
2015,08,29,06,38,996.31
2015,08,29,06,39,996.31
2015,08,29,06,40,996.28
2015,08,29,06,41,996.28
2015,08,29,06,42,996.24
2015,08,29,06,43,996.31
2015,08,29,06,44,996.45
2015,08,29,06,45,996.34
2015,08,29,06,46,996.41
2015,08,29,06,47,996.41
2015,08,29,06,48,996.45
2015,08,29,06,49,996.48
2015,08,29,06,50,996.51
2015,08,29,06,51,996.45
2015,08,29,06,52,996.34
2015,08,29,06,53,996.31
2015,08,29,06,54,996.34
2015,08,29,06,55,996.24
2015,08,29,06,56,996.32
2015,08,29,06,57,996.41
2015,08,29,06,58,996.51
2015,08,29,06,59,996.54
2015,08,29,07,00,996.45
2015,08,29,07,01,996.58
2015,08,29,07,02,996.61
2015,08,29,07,03,996.50
2015,08,29,07,04,996.32
2015,08,29,07,05,996.55
2015,08,29,07,06,996.65
2015,08,29,07,07,996.64
2015,08,29,07,08,996.51
2015,08,29,07,09,996.48
2015,08,29,07,10,996.55
2015,08,29,07,11,996.61
2015,08,29,07,12,996.68
2015,08,29,07,13,996.65
2015,08,29,07,14,996.58
2015,08,29,07,15,996.58
2015,08,29,07,16,996.58
2015,08,29,07,17,996.65
2015,08,29,07,18,996.68
2015,08,29,07,19,996.78
2015,08,29,07,20,996.78
2015,08,29,07,21,996.82
2015,08,29,07,22,996.95
2015,08,29,07,23,996.99
2015,08,29,07,24,996.95
2015,08,29,07,25,996.99
2015,08,29,07,26,997.05
2015,08,29,07,27,997.26
2015,08,29,07,28,997.33
2015,08,29,07,29,997.29
2015,08,29,07,30,997.29
2015,08,29,07,31,997.36
2015,08,29,07,32,997.36
2015,08,29,07,33,997.39
2015,08,29,07,34,997.39
2015,08,29,07,35,997.36
2015,08,29,07,36,997.35
2015,08,29,07,37,997.22
2015,08,29,07,38,997.16
2015,08,29,07,39,997.16
2015,08,29,07,40,997.16
2015,08,29,07,41,997.22
2015,08,29,07,42,997.29
2015,08,29,07,43,997.26
2015,08,29,07,44,997.26
2015,08,29,07,45,997.26
2015,08,29,07,46,997.33
2015,08,29,07,47,997.26
2015,08,29,07,48,997.16
2015,08,29,07,49,997.17
2015,08,29,07,50,997.36
2015,08,29,07,51,997.46
2015,08,29,07,52,997.43
2015,08,29,07,53,997.43
2015,08,29,07,54,997.39
2015,08,29,07,55,997.46
2015,08,29,07,56,997.51
2015,08,29,07,57,997.72
2015,08,29,07,58,997.62
2015,08,29,07,59,997.53
2015,08,29,08,00,997.60
2015,08,29,08,01,997.56
2015,08,29,08,02,997.53
2015,08,29,08,03,997.70
2015,08,29,08,04,997.60
2015,08,29,08,05,997.63
2015,08,29,08,06,997.56
2015,08,29,08,07,997.56
2015,08,29,08,08,997.63
2015,08,29,08,09,997.56
2015,08,29,08,10,997.50
2015,08,29,08,11,997.46
2015,08,29,08,12,997.46
2015,08,29,08,13,997.53
2015,08,29,08,14,997.43
2015,08,29,08,15,997.36
2015,08,29,08,16,997.43
2015,08,29,08,17,997.39
2015,08,29,08,18,997.43
2015,08,29,08,19,997.39
2015,08,29,08,20,997.39
2015,08,29,08,21,997.29
2015,08,29,08,22,997.39
2015,08,29,08,23,997.36
2015,08,29,08,24,997.36
2015,08,29,08,25,997.26
2015,08,29,08,26,997.22
2015,08,29,08,27,997.22
2015,08,29,08,28,997.22
2015,08,29,08,29,997.22
2015,08,29,08,30,997.09
2015,08,29,08,31,997.16
2015,08,29,08,32,997.28
2015,08,29,08,33,997.09
2015,08,29,08,34,996.99
2015,08,29,08,35,997.02
2015,08,29,08,36,997.05
2015,08,29,08,37,997.05
2015,08,29,08,38,997.05
2015,08,29,08,39,996.99
2015,08,29,08,40,996.99
2015,08,29,08,41,996.85
2015,08,29,08,42,996.85
2015,08,29,08,43,996.85
2015,08,29,08,44,996.85
2015,08,29,08,45,996.81
2015,08,29,08,46,996.68
2015,08,29,08,47,996.65
2015,08,29,08,48,996.72
2015,08,29,08,49,996.78
2015,08,29,08,50,996.75
2015,08,29,08,51,996.68
2015,08,29,08,52,996.65
2015,08,29,08,53,996.65
2015,08,29,08,54,996.65
2015,08,29,08,55,996.61
2015,08,29,08,56,996.65
2015,08,29,08,57,996.68
2015,08,29,08,58,996.82
2015,08,29,08,59,996.77
2015,08,29,09,00,996.65
2015,08,29,09,01,996.46
2015,08,29,09,02,996.38
2015,08,29,09,03,996.48
2015,08,29,09,04,996.60
2015,08,29,09,05,996.51
2015,08,29,09,06,996.48
2015,08,29,09,07,996.45
2015,08,29,09,08,996.48
2015,08,29,09,09,996.61
2015,08,29,09,10,996.72
2015,08,29,09,11,996.45
2015,08,29,09,12,996.59
2015,08,29,09,13,996.82
2015,08,29,09,14,996.81
2015,08,29,09,15,996.61
2015,08,29,09,16,996.58
2015,08,29,09,17,996.38
2015,08,29,09,18,996.28
2015,08,29,09,19,996.24
2015,08,29,09,20,996.17
2015,08,29,09,21,996.11
2015,08,29,09,22,996.01
2015,08,29,09,23,995.90
2015,08,29,09,24,995.77
2015,08,29,09,25,995.73
2015,08,29,09,26,995.77
2015,08,29,09,27,995.77
2015,08,29,09,28,995.70
2015,08,29,09,29,995.67
2015,08,29,09,30,995.60
2015,08,29,09,31,995.53
2015,08,29,09,32,995.56
2015,08,29,09,33,995.56
2015,08,29,09,34,995.56
2015,08,29,09,35,995.43
2015,08,29,09,36,995.33
2015,08,29,09,37,995.28
2015,08,29,09,38,995.19
2015,08,29,09,39,995.12
2015,08,29,09,40,995.06
2015,08,29,09,41,995.09
2015,08,29,09,42,995.02
2015,08,29,09,43,994.99
2015,08,29,09,44,994.82
2015,08,29,09,45,994.72
2015,08,29,09,46,994.65
2015,08,29,09,47,994.62
2015,08,29,09,48,994.58
2015,08,29,09,49,994.58
2015,08,29,09,50,994.58
2015,08,29,09,51,994.58
2015,08,29,09,52,994.41
2015,08,29,09,53,994.41
2015,08,29,09,54,994.45
2015,08,29,09,55,994.41
2015,08,29,09,56,994.41
2015,08,29,09,57,994.38
2015,08,29,09,58,994.31
2015,08,29,09,59,994.24
2015,08,29,10,00,994.28
2015,08,29,10,01,994.23
2015,08,29,10,02,994.11
2015,08,29,10,03,994.11
2015,08,29,10,04,994.14
2015,08,29,10,05,994.14
2015,08,29,10,06,994.07
2015,08,29,10,07,993.94
2015,08,29,10,08,993.90
2015,08,29,10,09,993.74
2015,08,29,10,10,993.67
2015,08,29,10,11,993.70
2015,08,29,10,12,993.87
2015,08,29,10,13,993.80
2015,08,29,10,14,993.80
2015,08,29,10,15,993.77
2015,08,29,10,16,993.84
2015,08,29,10,17,993.80
2015,08,29,10,18,993.74
2015,08,29,10,19,993.67
2015,08,29,10,20,993.63
2015,08,29,10,21,993.57
2015,08,29,10,22,993.57
2015,08,29,10,23,993.57
2015,08,29,10,24,993.47
2015,08,29,10,25,993.39
2015,08,29,10,26,993.22
2015,08,29,10,27,993.06
2015,08,29,10,28,993.09
2015,08,29,10,29,993.09
2015,08,29,10,30,993.03
2015,08,29,10,31,993.09
2015,08,29,10,32,993.09
2015,08,29,10,33,993.06
2015,08,29,10,34,993.06
2015,08,29,10,35,993.06
2015,08,29,10,36,992.98
2015,08,29,10,37,992.89
2015,08,29,10,38,992.82
2015,08,29,10,39,992.79
2015,08,29,10,40,992.82
2015,08,29,10,41,992.79
2015,08,29,10,42,992.82
2015,08,29,10,43,992.82
2015,08,29,10,44,992.86
2015,08,29,10,45,992.82
2015,08,29,10,46,992.86
2015,08,29,10,47,992.65
2015,08,29,10,48,992.55
2015,08,29,10,49,992.54
2015,08,29,10,50,992.87
